Tracking 35237 objects as of 6-Sep-2026
HD Live streaming from Space Station
objects crossing your sky now

STARLINK-33700

Track STARLINK-33700 now!
10-day predictions
STARLINK-33700 is classified as:


NORAD ID: 63484
Int'l Code: 2025-070AA
Launch date: April 6, 2025
Source: United States (US)
Launch site: AIR FORCE EASTERN TEST RANGE (AFETR)
Your satellite tracking list
Your tracking list is empty




NASA's NSSDC Master Catalog

Two Line Element Set (TLE):
1 63484U 25070AA  26249.26171723  .00003152  00000-0  12402-3 0  9994
2 63484  43.0048 319.9129 0001854 270.1736  89.8903 15.27577395 80594
Source of the keplerian elements: AFSPC